Погода в Любани

Погода в Любани : погода сейчас, прогноз погоды и архив. Всё, что Вы хотите узнать о погоде в Любани!

Поиск расширенной информации на нашем сайте:

Другие новости

Новости СМИ2

Главная страница сайта

Новости сайта

03.07.2017

Напоминаем, что на нашем специализированном сайте Метеоцентр.Азия вы можете получить высокодетализированные автоматические прогнозы погоды по пунктам России, СНГ и мира в авиационном формате (включающие направление и скорость ветра, видимость, явления погоды, количество и форму облачности, нижнюю и верхнюю границу облачности).


Погода в Любани - сегодня

Время (UTC), дата Ветер
(°,м/с) 
Видим.   Явления Облачность Т
(°С)
Тd
(°С)
f(%) Тe
(°С)
Pmin
(гПа)
dP
(гПа)
Po
(мм)
O2
(г/м3)
Тmin Tmax R s Состояние
почвы
00 18.08.17 160 (Ю) н/о    н/о 
+17.9 +16.6 92 +30  1019.1  -0.6  761  284           
03 18.08.17 160 (Ю) н/о    н/о 
+16.3 +15.8 97 +28  1018.4  -0.7  760  286  +16.3         
06 18.08.17 210 (ЮЗ) 10 км    10/10 300 м 
[St]
+18.5 +17.3 93 +31  1018.5  0.1  760  283  +16.2      влажная 
09 18.08.17 200 (Ю) н/о    н/о 
+23.4 +15.3 60 +32  1018.1  -0.3  760  279           
12 18.08.17 210 (ЮЗ) н/о    н/о 
+24.3 +12.7 48 +29  1017.3  -0.8  760  279           
15 18.08.17 210 (ЮЗ) н/о    н/о 
+23.1 +12.9 53 +28  1016.7  -0.7  759  280           
18 18.08.17 160 (Ю) 10 км  в посл. час ливневой дождь  10/3 1000 м кучево-дожд., средняя 
[Cb cap|As op]
+19.7 +16.7 83 +32  1016.8  759  282    +25.4  0.1     
21 18.08.17 150 (ЮВ) н/о    н/о 
+17.3 +16.3 94 +30  1015.8  -1  758  284           
00 19.08.17 тихо ()   н/о    н/о 
+15.4 +15 97 +24  1016.3  -0.2  759  286           
03 19.08.17 180 (Ю) н/о    н/о 
+16.2 +16.1 99 +27  1015.9  -0.3  758  285  +14         
06 19.08.17 160 (Ю) 4000 м  дымка  9/6 450 м кучево-дожд., средняя, верхняя 
[Cb cap|Ac trans|Ci fib]
+18.5 +17.8 96 +33  1016.1  0.2  759  282  +14    0.4    влажная 
09 19.08.17 150 (ЮВ) н/о    н/о 
+24.2 +19 73 +40  1015  -1  758  276           
12 19.08.17 140 (ЮВ) н/о    н/о 
+25.6 +20 71 +44  1014.1  -0.8  757  274           
15 19.08.17 170 (Ю) н/о    н/о 
+26.6 +19 63 +43  1012.6  -1.5  756  273           
18 19.08.17 170 (Ю) 10 км    5/0 верхняя 
[Ci fib]
+22.9 +18.4 76 +38  1012.8  0.1  756  277    +27       
21 19.08.17 210 (ЮЗ) н/о    н/о 
+22 +18.3 80 +37  1013.7  0.9  757  278           
00 20.08.17 160 (Ю) н/о    н/о 
+17.8 +17.1 96 +31  1013.4  -0.4  757  282           
03 20.08.17 тихо ()   н/о    н/о 
+17.8 +16.7 93 +29  1014.8  1.4  758  283  +17.2         
06 20.08.17 240 (ЮЗ) 4000 м  слаб. ливневой дождь  10/6 570 м кучево-дожд., средняя 
[Cb cap|As op]
+18.7 +15.8 83 +30  1016.2  1.4  759  283  +17.2    0.1    влажная 
09 20.08.17 тихо ()   н/о    н/о 
+17.9 +16.7 93 +29  1017.9  1.7  760  284           
12 20.08.17 240 (ЮЗ) н/о    н/о 
+20.7 +14 65 +27  1017.9  760  282           
15 20.08.17 240 (ЮЗ) н/о    н/о 
+19.4 +15.6 79 +30  1017.7  -0.3  760  283           
18 20.08.17 тихо ()   10 км    10/0 средняя 
[Ac und]
+16.8 +14.8 88 +25  1017.3  -0.4  759  285    +21.5  0.5     
21 20.08.17 тихо ()   н/о    н/о 
+15 +14.5 97 +23  1016.4  -1  759  287           
00 21.08.17 030 (СВ) н/о    н/о 
+13.8 +11.5 86 +17  1015.7  -0.7  758  289           
Время (UTC), дата Ветер
(°,м/с) 
Видим.   Явления Облачность Т
(°С)
Тd
(°С)
f(%) Тe
(°С)
Pmin
(гПа)
dP
(гПа)
Po
(мм)
O2
(г/м3)
Тmin Tmax R s Состояние
почвы

Для получения пояснительной информации подведите курсор к названию столбца.

ПОГОДА в Любани - архив

Всё, что Вы хотите узнать о погоде в Любани - удобно и подробно!

Выберите нужную дату (начиная с 1 января 2015* года) и нажмите кнопку "Найти".
Будут отображены архивные сводки погоды по пункту Любань, начиная с указанной даты.


Отображать данные в формате CSV (для использования в таблицах Excel)


Внимание! Наш архив погоды предназначен исключительно для личного некоммерческого использования в познавательных целях. Если Вам необходимы официальные справки о состоянии погоды (для производственных, юридических, коммерческих и т.п. целей), обращайтесь в органы Росгидромета.

*Примечание: данная дата относится к архиву по метеостанциям СССР (Россия, СНГ, Балтия).
Архив по метеостанциям Зарубежной Европы и Азии (кроме Китая) хранится 10 дней, по другим регионам земного шара (Китай, Африка, Америка, Австралия, Океания) - 1 день.

Любань - район местоположения метеостанции


Название, широта, долгота, высота метеостанции:
Любань 59.3°ш. 31.2°д. 39 м над ур. моря [Российская Федерация]

Дополнительная информация

В oтличие oт бoльшинства пoгoдных сайтoв мы публикуем пoдрoбную метеoинфoрмацию в детальнoм прoфессиoнальнoм фoрмате.

Характеристики температуры и влажнoсти вoздуха измеряются на высoте 2 м в тени вдали oт зданий и деревьев.
Скoрoсть ветра измеряется на высoте 10 м (на урoвне рoста челoвека скoрoсть ветра ниже в 1.5-2 раза). Если метеoстанция нахoдится в гoрoде или в лесу, тo скoрoсть ветра занижена на 2-4 м/с пo сравнению с oткрытым местoм. Скoрoсть ветра над акватoриями крупных рек и oзёр, а также на вершинах хoлмoв на 2-5 м/с выше, чем в oбычных услoвиях.
Атмoсфернoе давление в разных тoчках местнoсти мoжет значительнo oтличаться oт давления на метеoстанции, в зависимoсти oт услoвий рельефа (при пoдъёме на 10 м давление пoнижается примернo на 1 мм рт.ст.).